Time,TemperatureF,DewpointF,PressureIn,WindDirection,WindDirectionDegrees,WindSpeedMPH,WindSpeedGustMPH,Humidity,HourlyPrecipIn,Conditions,Clouds,dailyrainin,SolarRadiationWatts/m^2,SoftwareType,DateUTC
2013-08-18 00:00:00,70.3,69.1,29.95,ENE,57,0.0,0.0,96,0.00,,,0.00,0,Wunderground v.1.15,2013-08-18 05:00:00,
2013-08-18 00:07:00,70.3,69.1,29.95,ENE,57,0.0,0.0,96,0.00,,,0.00,0,Wunderground v.1.15,2013-08-18 05:07:00,
2013-08-18 00:12:00,70.2,69.0,29.95,ENE,57,0.0,0.0,96,0.00,,,0.00,0,Wunderground v.1.15,2013-08-18 05:12:00,
2013-08-18 00:17:00,70.2,69.0,29.95,ENE,57,0.0,0.0,96,0.00,,,0.00,0,Wunderground v.1.15,2013-08-18 05:17:00,
2013-08-18 00:22:00,70.1,68.9,29.95,ENE,57,0.0,0.0,96,0.00,,,0.00,0,Wunderground v.1.15,2013-08-18 05:22:00,
2013-08-18 00:29:00,70.1,68.9,29.95,NE,56,0.0,3.0,96,0.00,,,0.00,0,Wunderground v.1.15,2013-08-18 05:29:00,
2013-08-18 00:34:00,70.1,68.9,29.95,NE,56,0.0,1.0,96,0.00,,,0.00,0,Wunderground v.1.15,2013-08-18 05:34:00,
2013-08-18 00:39:00,70.1,68.9,29.94,NE,56,0.0,1.0,96,0.00,,,0.00,0,Wunderground v.1.15,2013-08-18 05:39:00,
2013-08-18 00:44:00,70.0,68.8,29.94,NE,56,0.0,0.0,96,0.00,,,0.00,0,Wunderground v.1.15,2013-08-18 05:44:00,
2013-08-18 00:50:00,70.0,68.8,29.94,NE,56,0.0,2.0,96,0.00,,,0.00,0,Wunderground v.1.15,2013-08-18 05:50:00,
2013-08-18 00:55:00,69.9,69.0,29.94,NE,56,1.0,2.0,97,0.00,,,0.00,0,Wunderground v.1.15,2013-08-18 05:55:00,
2013-08-18 01:00:00,69.9,69.0,29.94,NE,56,0.0,2.0,97,0.00,,,0.00,0,Wunderground v.1.15,2013-08-18 06:00:00,
2013-08-18 01:05:00,69.8,68.9,29.94,NE,56,0.0,0.0,97,0.00,,,0.00,0,Wunderground v.1.15,2013-08-18 06:05:00,
2013-08-18 01:11:00,69.7,68.8,29.94,NE,56,0.0,0.0,97,0.00,,,0.00,0,Wunderground v.1.15,2013-08-18 06:11:00,
2013-08-18 01:16:00,69.7,68.8,29.94,NE,56,0.0,0.0,97,0.00,,,0.00,0,Wunderground v.1.15,2013-08-18 06:16:00,
2013-08-18 01:21:00,69.6,68.7,29.94,NE,56,0.0,0.0,97,0.00,,,0.00,0,Wunderground v.1.15,2013-08-18 06:21:00,
2013-08-18 01:27:00,69.6,68.7,29.94,NE,56,0.0,0.0,97,0.00,,,0.00,0,Wunderground v.1.15,2013-08-18 06:27:00,
2013-08-18 01:32:00,69.5,68.6,29.94,NE,56,0.0,0.0,97,0.00,,,0.00,0,Wunderground v.1.15,2013-08-18 06:32:00,
2013-08-18 01:37:00,69.5,68.6,29.94,NE,56,0.0,0.0,97,0.00,,,0.00,0,Wunderground v.1.15,2013-08-18 06:37:00,
2013-08-18 01:42:00,69.4,68.5,29.94,NE,54,0.0,3.0,97,0.00,,,0.00,0,Wunderground v.1.15,2013-08-18 06:42:00,
2013-08-18 01:49:00,69.4,68.5,29.94,NE,54,0.0,0.0,97,0.00,,,0.00,0,Wunderground v.1.15,2013-08-18 06:49:00,
2013-08-18 01:54:00,69.4,68.5,29.93,NE,54,0.0,0.0,97,0.00,,,0.00,0,Wunderground v.1.15,2013-08-18 06:54:00,
2013-08-18 01:59:00,69.4,68.5,29.93,NE,54,0.0,0.0,97,0.00,,,0.00,0,Wunderground v.1.15,2013-08-18 06:59:00,
2013-08-18 02:04:00,69.5,68.6,29.93,NE,48,0.0,5.0,97,0.00,,,0.00,0,Wunderground v.1.15,2013-08-18 07:04:00,
2013-08-18 02:10:00,69.5,68.6,29.94,NE,45,1.0,5.0,97,0.00,,,0.00,0,Wunderground v.1.15,2013-08-18 07:10:00,
2013-08-18 02:15:00,69.4,68.5,29.94,NE,35,0.0,2.0,97,0.00,,,0.00,0,Wunderground v.1.15,2013-08-18 07:15:00,
2013-08-18 02:20:00,69.4,68.5,29.93,East,81,1.0,2.0,97,0.00,,,0.00,0,Wunderground v.1.15,2013-08-18 07:20:00,
2013-08-18 02:25:00,69.4,68.8,29.93,ENE,58,1.0,5.0,98,0.00,,,0.00,0,Wunderground v.1.15,2013-08-18 07:25:00,
2013-08-18 02:31:00,69.3,68.7,29.93,NE,44,1.0,7.0,98,0.00,,,0.00,0,Wunderground v.1.15,2013-08-18 07:31:00,
2013-08-18 02:36:00,69.3,68.7,29.93,NE,44,1.0,1.0,98,0.00,,,0.00,0,Wunderground v.1.15,2013-08-18 07:36:00,
2013-08-18 02:41:00,69.3,68.7,29.93,NE,44,0.0,1.0,98,0.00,,,0.00,0,Wunderground v.1.15,2013-08-18 07:41:00,
2013-08-18 02:46:00,69.2,68.6,29.93,NE,44,0.0,0.0,98,0.00,,,0.00,0,Wunderground v.1.15,2013-08-18 07:46:00,
2013-08-18 02:51:00,69.1,68.5,29.93,NE,44,0.0,0.0,98,0.00,,,0.00,0,Wunderground v.1.15,2013-08-18 07:51:00,
2013-08-18 02:56:00,69.0,68.1,29.93,ENE,65,0.0,1.0,97,0.00,,,0.00,0,Wunderground v.1.15,2013-08-18 07:56:00,
2013-08-18 03:03:00,69.0,68.4,29.93,ENE,61,0.0,0.0,98,0.00,,,0.00,0,Wunderground v.1.15,2013-08-18 08:03:00,
2013-08-18 03:08:00,69.0,68.4,29.93,ESE,104,0.0,0.0,98,0.00,,,0.00,0,Wunderground v.1.15,2013-08-18 08:08:00,
2013-08-18 03:13:00,68.9,68.3,29.93,NE,35,0.0,0.0,98,0.00,,,0.00,0,Wunderground v.1.15,2013-08-18 08:13:00,
2013-08-18 03:18:00,69.0,68.4,29.93,NE,35,0.0,0.0,98,0.00,,,0.00,0,Wunderground v.1.15,2013-08-18 08:18:00,
2013-08-18 03:23:00,69.0,68.4,29.93,NE,47,1.0,3.0,98,0.00,,,0.00,0,Wunderground v.1.15,2013-08-18 08:23:00,
2013-08-18 03:30:00,69.0,68.4,29.93,NE,47,1.0,3.0,98,0.00,,,0.00,0,Wunderground v.1.15,2013-08-18 08:30:00,
2013-08-18 03:35:00,69.0,68.4,29.93,ENE,75,0.0,1.0,98,0.00,,,0.00,0,Wunderground v.1.15,2013-08-18 08:35:00,
2013-08-18 03:40:00,69.0,68.4,29.93,East,84,1.0,2.0,98,0.00,,,0.00,0,Wunderground v.1.15,2013-08-18 08:40:00,
2013-08-18 03:45:00,69.0,68.4,29.93,NNE,21,1.0,3.0,98,0.00,,,0.00,0,Wunderground v.1.15,2013-08-18 08:45:00,
2013-08-18 03:50:00,69.0,68.4,29.93,NNE,27,1.0,3.0,98,0.00,,,0.00,0,Wunderground v.1.15,2013-08-18 08:50:00,
2013-08-18 03:56:00,69.0,68.4,29.93,NNE,27,1.0,1.0,98,0.00,,,0.00,0,Wunderground v.1.15,2013-08-18 08:56:00,
2013-08-18 04:01:00,68.9,68.3,29.94,NE,42,1.0,3.0,98,0.00,,,0.00,0,Wunderground v.1.15,2013-08-18 09:01:00,
2013-08-18 04:06:00,68.9,68.3,29.94,NE,42,1.0,2.0,98,0.00,,,0.00,0,Wunderground v.1.15,2013-08-18 09:06:00,
2013-08-18 04:12:00,68.9,68.3,29.94,NE,41,1.0,2.0,98,0.00,,,0.00,0,Wunderground v.1.15,2013-08-18 09:12:00,
2013-08-18 04:17:00,68.8,68.2,29.94,NE,48,1.0,4.0,98,0.00,,,0.00,0,Wunderground v.1.15,2013-08-18 09:17:00,
2013-08-18 04:22:00,68.8,68.2,29.95,NNE,19,2.0,6.0,98,0.00,,,0.00,0,Wunderground v.1.15,2013-08-18 09:22:00,
2013-08-18 04:27:00,68.7,68.1,29.94,NNE,15,1.0,6.0,98,0.00,,,0.00,0,Wunderground v.1.15,2013-08-18 09:27:00,
2013-08-18 04:32:00,68.7,68.1,29.94,NE,38,1.0,6.0,98,0.00,,,0.00,0,Wunderground v.1.15,2013-08-18 09:32:00,
2013-08-18 04:38:00,68.6,68.0,29.94,East,95,1.0,6.0,98,0.00,,,0.00,0,Wunderground v.1.15,2013-08-18 09:38:00,
2013-08-18 04:44:00,68.6,68.0,29.94,NE,56,1.0,2.0,98,0.00,,,0.00,0,Wunderground v.1.15,2013-08-18 09:44:00,
2013-08-18 04:49:00,68.6,68.0,29.94,NE,56,0.0,2.0,98,0.00,,,0.00,0,Wunderground v.1.15,2013-08-18 09:49:00,
2013-08-18 04:55:00,68.5,67.9,29.94,NE,34,1.0,5.0,98,0.00,,,0.00,0,Wunderground v.1.15,2013-08-18 09:55:00,
2013-08-18 05:00:00,68.4,67.8,29.94,NE,35,1.0,5.0,98,0.00,,,0.00,0,Wunderground v.1.15,2013-08-18 10:00:00,
2013-08-18 05:05:00,68.4,67.8,29.95,NE,40,1.0,3.0,98,0.00,,,0.00,0,Wunderground v.1.15,2013-08-18 10:05:00,
2013-08-18 05:11:00,68.3,67.7,29.95,ENE,65,1.0,5.0,98,0.00,,,0.00,0,Wunderground v.1.15,2013-08-18 10:11:00,
2013-08-18 05:16:00,68.3,67.7,29.95,ENE,63,1.0,2.0,98,0.00,,,0.00,0,Wunderground v.1.15,2013-08-18 10:16:00,
2013-08-18 05:21:00,68.3,67.7,29.95,NE,34,1.0,7.0,98,0.00,,,0.00,0,Wunderground v.1.15,2013-08-18 10:21:00,
2013-08-18 05:27:00,68.2,67.6,29.95,NE,48,1.0,9.0,98,0.00,,,0.00,0,Wunderground v.1.15,2013-08-18 10:27:00,
2013-08-18 05:33:00,68.2,67.6,29.95,NNE,30,1.0,2.0,98,0.00,,,0.00,0,Wunderground v.1.15,2013-08-18 10:33:00,
2013-08-18 05:38:00,68.3,67.7,29.95,NE,38,1.0,2.0,98,0.00,,,0.00,0,Wunderground v.1.15,2013-08-18 10:38:00,
2013-08-18 05:43:00,68.2,67.6,29.95,NE,44,1.0,7.0,98,0.00,,,0.00,0,Wunderground v.1.15,2013-08-18 10:43:00,
2013-08-18 05:49:00,68.2,67.6,29.95,NE,46,2.0,7.0,98,0.00,,,0.00,0,Wunderground v.1.15,2013-08-18 10:49:00,
2013-08-18 05:54:00,68.1,67.5,29.95,NNE,27,3.0,4.0,98,0.00,,,0.00,0,Wunderground v.1.15,2013-08-18 10:54:00,
2013-08-18 05:59:00,68.1,67.5,29.95,NNE,22,3.0,5.0,98,0.00,,,0.00,0,Wunderground v.1.15,2013-08-18 10:59:00,
2013-08-18 06:04:00,68.2,67.6,29.95,NE,34,2.0,4.0,98,0.00,,,0.00,0,Wunderground v.1.15,2013-08-18 11:04:00,
2013-08-18 06:09:00,68.2,67.6,29.96,ENE,66,2.0,6.0,98,0.00,,,0.00,0,Wunderground v.1.15,2013-08-18 11:09:00,
2013-08-18 06:15:00,68.3,67.7,29.96,NNE,27,1.0,5.0,98,0.00,,,0.00,0,Wunderground v.1.15,2013-08-18 11:15:00,
2013-08-18 06:21:00,68.2,67.6,29.96,NNE,27,2.0,6.0,98,0.00,,,0.00,0,Wunderground v.1.15,2013-08-18 11:21:00,
2013-08-18 06:26:00,68.3,67.7,29.97,NE,34,2.0,5.0,98,0.00,,,0.00,0,Wunderground v.1.15,2013-08-18 11:26:00,
2013-08-18 06:31:00,68.3,67.7,29.97,SE,127,1.0,6.0,98,0.00,,,0.00,0,Wunderground v.1.15,2013-08-18 11:31:00,
2013-08-18 06:36:00,68.3,67.7,29.97,ENE,75,1.0,2.0,98,0.00,,,0.00,0,Wunderground v.1.15,2013-08-18 11:36:00,
2013-08-18 06:43:00,68.4,67.8,29.97,NE,34,1.0,6.0,98,0.00,,,0.00,0,Wunderground v.1.15,2013-08-18 11:43:00,
2013-08-18 06:48:00,68.5,67.9,29.97,NNE,15,1.0,7.0,98,0.00,,,0.00,0,Wunderground v.1.15,2013-08-18 11:48:00,
2013-08-18 06:53:00,68.5,67.9,29.97,NNE,15,0.0,0.0,98,0.00,,,0.00,0,Wunderground v.1.15,2013-08-18 11:53:00,
2013-08-18 06:59:00,68.6,68.0,29.97,NNE,15,0.0,1.0,98,0.00,,,0.00,5,Wunderground v.1.15,2013-08-18 11:59:00,
2013-08-18 07:04:00,68.6,68.0,29.97,NE,42,1.0,3.0,98,0.00,,,0.00,7,Wunderground v.1.15,2013-08-18 12:04:00,
2013-08-18 07:09:00,68.6,68.0,29.97,NE,40,1.0,3.0,98,0.00,,,0.00,7,Wunderground v.1.15,2013-08-18 12:09:00,
2013-08-18 07:14:00,68.7,68.1,29.97,NNE,27,0.0,4.0,98,0.00,,,0.00,11,Wunderground v.1.15,2013-08-18 12:14:00,
2013-08-18 07:20:00,68.7,68.1,29.97,NE,39,1.0,4.0,98,0.00,,,0.00,12,Wunderground v.1.15,2013-08-18 12:20:00,
2013-08-18 07:25:00,68.8,68.2,29.96,NE,39,0.0,1.0,98,0.00,,,0.00,32,Wunderground v.1.15,2013-08-18 12:25:00,
2013-08-18 07:30:00,68.8,68.2,29.97,NNE,23,1.0,8.0,98,0.00,,,0.00,30,Wunderground v.1.15,2013-08-18 12:30:00,
2013-08-18 07:35:00,68.9,68.3,29.96,NE,50,1.0,1.0,98,0.00,,,0.00,25,Wunderground v.1.15,2013-08-18 12:35:00,
2013-08-18 07:41:00,69.0,68.4,29.96,NE,47,1.0,3.0,98,0.00,,,0.00,32,Wunderground v.1.15,2013-08-18 12:41:00,
2013-08-18 07:46:00,69.1,68.5,29.96,NE,37,1.0,4.0,98,0.00,,,0.00,176,Wunderground v.1.15,2013-08-18 12:46:00,
2013-08-18 07:51:00,69.3,68.7,29.96,ENE,59,1.0,4.0,98,0.00,,,0.00,186,Wunderground v.1.15,2013-08-18 12:51:00,
2013-08-18 07:56:00,69.5,68.9,29.96,North,5,1.0,1.0,98,0.00,,,0.00,123,Wunderground v.1.15,2013-08-18 12:56:00,
2013-08-18 08:01:00,69.7,68.8,29.96,NNW,340,1.0,1.0,97,0.00,,,0.00,162,Wunderground v.1.15,2013-08-18 13:01:00,
2013-08-18 08:07:00,69.9,69.0,29.97,NE,56,1.0,1.0,97,0.00,,,0.00,81,Wunderground v.1.15,2013-08-18 13:07:00,
2013-08-18 08:12:00,69.9,68.7,29.97,NE,36,1.0,1.0,96,0.00,,,0.00,76,Wunderground v.1.15,2013-08-18 13:12:00,
2013-08-18 08:17:00,70.0,68.5,29.97,NE,54,1.0,6.0,95,0.00,,,0.00,84,Wunderground v.1.15,2013-08-18 13:17:00,
2013-08-18 08:23:00,70.1,68.6,29.97,NE,44,2.0,8.0,95,0.00,,,0.00,77,Wunderground v.1.15,2013-08-18 13:23:00,
2013-08-18 08:28:00,70.1,68.6,29.97,NNE,27,1.0,8.0,95,0.00,,,0.00,63,Wunderground v.1.15,2013-08-18 13:28:00,
2013-08-18 08:33:00,70.2,68.7,29.97,NE,37,1.0,1.0,95,0.00,,,0.00,49,Wunderground v.1.15,2013-08-18 13:33:00,
2013-08-18 08:38:00,70.2,68.7,29.97,NNW,331,1.0,8.0,95,0.00,,,0.00,69,Wunderground v.1.15,2013-08-18 13:38:00,
2013-08-18 08:44:00,70.2,68.7,29.97,North,10,1.0,1.0,95,0.00,,,0.00,70,Wunderground v.1.15,2013-08-18 13:44:00,
2013-08-18 08:49:00,70.2,68.7,29.97,ENE,65,1.0,6.0,95,0.00,,,0.00,93,Wunderground v.1.15,2013-08-18 13:49:00,
2013-08-18 08:54:00,70.2,68.7,29.97,ENE,71,1.0,4.0,95,0.00,,,0.00,84,Wunderground v.1.15,2013-08-18 13:54:00,
2013-08-18 08:59:00,70.3,68.8,29.97,NE,47,3.0,9.0,95,0.00,,,0.00,63,Wunderground v.1.15,2013-08-18 13:59:00,
2013-08-18 09:05:00,70.3,68.8,29.97,NE,44,3.0,8.0,95,0.00,,,0.00,81,Wunderground v.1.15,2013-08-18 14:05:00,
2013-08-18 09:10:00,70.3,68.8,29.97,NW,325,2.0,8.0,95,0.00,,,0.00,77,Wunderground v.1.15,2013-08-18 14:10:00,
2013-08-18 09:15:00,70.4,68.9,29.97,NE,52,2.0,4.0,95,0.00,,,0.00,125,Wunderground v.1.15,2013-08-18 14:15:00,
2013-08-18 09:20:00,70.4,68.9,29.98,NE,42,2.0,4.0,95,0.00,,,0.00,232,Wunderground v.1.15,2013-08-18 14:20:00,
2013-08-18 09:25:00,70.7,69.2,29.98,NE,34,1.0,3.0,95,0.00,,,0.00,232,Wunderground v.1.15,2013-08-18 14:25:00,
2013-08-18 09:31:00,71.1,69.3,29.98,North,5,2.0,5.0,94,0.00,,,0.00,355,Wunderground v.1.15,2013-08-18 14:31:00,
2013-08-18 09:36:00,71.4,69.3,29.98,North,1,2.0,5.0,93,0.00,,,0.00,287,Wunderground v.1.15,2013-08-18 14:36:00,
2013-08-18 09:41:00,71.8,69.7,29.98,North,10,2.0,5.0,93,0.00,,,0.00,223,Wunderground v.1.15,2013-08-18 14:41:00,
2013-08-18 09:46:00,72.0,69.5,29.98,NE,38,3.0,6.0,92,0.00,,,0.00,214,Wunderground v.1.15,2013-08-18 14:46:00,
2013-08-18 09:51:00,72.1,69.6,29.98,North,5,3.0,6.0,92,0.00,,,0.00,216,Wunderground v.1.15,2013-08-18 14:51:00,
2013-08-18 09:57:00,72.2,69.7,29.99,NE,43,2.0,13.0,92,0.00,,,0.00,193,Wunderground v.1.15,2013-08-18 14:57:00,
2013-08-18 10:02:00,72.4,69.6,29.99,ENE,66,4.0,4.0,91,0.00,,,0.00,374,Wunderground v.1.15,2013-08-18 15:02:00,
2013-08-18 10:07:00,72.8,70.0,29.99,NNE,19,3.0,4.0,91,0.00,,,0.00,360,Wunderground v.1.15,2013-08-18 15:07:00,
2013-08-18 10:12:00,73.1,70.3,29.99,NNW,338,2.0,6.0,91,0.00,,,0.00,234,Wunderground v.1.15,2013-08-18 15:12:00,
2013-08-18 10:17:00,73.0,69.9,29.99,NE,38,2.0,6.0,90,0.00,,,0.00,255,Wunderground v.1.15,2013-08-18 15:17:00,
2013-08-18 10:23:00,73.0,69.9,30.00,NE,46,2.0,3.0,90,0.00,,,0.00,202,Wunderground v.1.15,2013-08-18 15:23:00,
2013-08-18 10:28:00,73.0,69.9,30.00,NE,48,3.0,9.0,90,0.00,,,0.00,141,Wunderground v.1.15,2013-08-18 15:28:00,
2013-08-18 10:33:00,73.0,69.9,30.00,ENE,62,3.0,6.0,90,0.00,,,0.00,116,Wunderground v.1.15,2013-08-18 15:33:00,
2013-08-18 10:39:00,72.9,70.1,30.00,NE,56,1.0,6.0,91,0.00,,,0.00,171,Wunderground v.1.15,2013-08-18 15:39:00,
2013-08-18 10:44:00,73.0,69.9,30.00,NNW,331,2.0,8.0,90,0.00,,,0.00,313,Wunderground v.1.15,2013-08-18 15:44:00,
2013-08-18 10:49:00,73.2,70.1,30.00,North,5,1.0,8.0,90,0.00,,,0.00,204,Wunderground v.1.15,2013-08-18 15:49:00,
2013-08-18 10:55:00,73.4,70.0,30.00,ENE,69,1.0,3.0,89,0.00,,,0.00,167,Wunderground v.1.15,2013-08-18 15:55:00,
2013-08-18 11:00:00,73.4,70.0,30.00,NNE,30,2.0,6.0,89,0.00,,,0.00,128,Wunderground v.1.15,2013-08-18 16:00:00,
2013-08-18 11:05:00,73.2,69.8,30.00,ENE,61,3.0,8.0,89,0.00,,,0.00,234,Wunderground v.1.15,2013-08-18 16:05:00,
2013-08-18 11:10:00,73.2,69.8,30.00,NE,47,3.0,8.0,89,0.00,,,0.00,216,Wunderground v.1.15,2013-08-18 16:10:00,
2013-08-18 11:16:00,73.3,70.2,30.00,NE,50,1.0,3.0,90,0.00,,,0.00,181,Wunderground v.1.15,2013-08-18 16:16:00,
2013-08-18 11:21:00,73.5,70.4,30.00,ENE,64,1.0,4.0,90,0.00,,,0.00,381,Wunderground v.1.15,2013-08-18 16:21:00,
2013-08-18 11:26:00,73.9,70.1,30.00,NNE,29,2.0,6.0,88,0.00,,,0.00,304,Wunderground v.1.15,2013-08-18 16:26:00,
2013-08-18 11:32:00,74.1,70.3,30.00,NNE,29,3.0,9.0,88,0.00,,,0.00,239,Wunderground v.1.15,2013-08-18 16:32:00,
2013-08-18 11:37:00,74.2,70.1,30.00,North,5,3.0,6.0,87,0.00,,,0.00,424,Wunderground v.1.15,2013-08-18 16:37:00,
2013-08-18 11:43:00,74.5,70.0,30.00,North,10,4.0,4.0,86,0.00,,,0.00,336,Wunderground v.1.15,2013-08-18 16:43:00,
2013-08-18 11:48:00,74.6,70.5,30.00,NNW,336,4.0,7.0,87,0.00,,,0.00,262,Wunderground v.1.15,2013-08-18 16:48:00,
2013-08-18 11:53:00,74.6,70.5,30.00,NE,34,3.0,8.0,87,0.00,,,0.00,577,Wunderground v.1.15,2013-08-18 16:53:00,
2013-08-18 11:58:00,75.1,70.6,30.00,NNW,333,4.0,8.0,86,0.00,,,0.00,1074,Wunderground v.1.15,2013-08-18 16:58:00,
2013-08-18 12:03:00,75.6,70.8,29.99,NNE,32,4.0,4.0,85,0.00,,,0.00,517,Wunderground v.1.15,2013-08-18 17:03:00,
2013-08-18 12:08:00,75.7,70.9,29.99,ENE,61,4.0,5.0,85,0.00,,,0.00,475,Wunderground v.1.15,2013-08-18 17:08:00,
2013-08-18 12:14:00,75.7,70.5,29.99,NE,34,3.0,3.0,84,0.00,,,0.00,513,Wunderground v.1.15,2013-08-18 17:14:00,
2013-08-18 12:19:00,76.0,71.2,29.99,North,5,3.0,4.0,85,0.00,,,0.00,1102,Wunderground v.1.15,2013-08-18 17:19:00,
2013-08-18 12:24:00,76.3,70.8,29.98,NNE,15,4.0,6.0,83,0.00,,,0.00,415,Wunderground v.1.15,2013-08-18 17:24:00,
2013-08-18 12:29:00,76.1,70.6,29.98,North,5,4.0,6.0,83,0.00,,,0.00,274,Wunderground v.1.15,2013-08-18 17:29:00,
2013-08-18 12:34:00,76.2,70.7,29.98,NNW,333,2.0,11.0,83,0.00,,,0.00,334,Wunderground v.1.15,2013-08-18 17:34:00,
2013-08-18 12:40:00,76.7,71.1,29.98,NE,43,2.0,11.0,83,0.00,,,0.00,471,Wunderground v.1.15,2013-08-18 17:40:00,
2013-08-18 12:45:00,76.9,71.0,29.98,North,5,3.0,6.0,82,0.00,,,0.00,462,Wunderground v.1.15,2013-08-18 17:45:00,
2013-08-18 12:50:00,77.3,71.0,29.98,NE,54,3.0,7.0,81,0.00,,,0.00,462,Wunderground v.1.15,2013-08-18 17:50:00,
2013-08-18 12:56:00,77.5,70.8,29.98,North,353,4.0,5.0,80,0.00,,,0.00,396,Wunderground v.1.15,2013-08-18 17:56:00,
2013-08-18 13:01:00,77.6,70.9,29.97,NE,34,3.0,7.0,80,0.00,,,0.00,490,Wunderground v.1.15,2013-08-18 18:01:00,
2013-08-18 13:06:00,77.8,71.1,29.97,NE,53,2.0,7.0,80,0.00,,,0.00,473,Wunderground v.1.15,2013-08-18 18:06:00,
2013-08-18 13:11:00,77.9,70.9,29.97,NNW,346,1.0,7.0,79,0.00,,,0.00,315,Wunderground v.1.15,2013-08-18 18:11:00,
2013-08-18 13:16:00,77.6,70.6,29.97,NNE,22,1.0,5.0,79,0.00,,,0.00,397,Wunderground v.1.15,2013-08-18 18:16:00,
2013-08-18 13:22:00,77.4,70.4,29.97,North,352,2.0,5.0,79,0.00,,,0.00,265,Wunderground v.1.15,2013-08-18 18:22:00,
2013-08-18 13:27:00,77.2,70.5,29.97,NNW,331,2.0,5.0,80,0.00,,,0.00,353,Wunderground v.1.15,2013-08-18 18:27:00,
2013-08-18 13:32:00,77.2,70.5,29.97,NE,45,2.0,3.0,80,0.00,,,0.00,339,Wunderground v.1.15,2013-08-18 18:32:00,
2013-08-18 13:38:00,77.4,70.7,29.96,ENE,71,2.0,8.0,80,0.00,,,0.00,438,Wunderground v.1.15,2013-08-18 18:38:00,
2013-08-18 13:43:00,77.7,71.0,29.96,NE,46,2.0,2.0,80,0.00,,,0.00,232,Wunderground v.1.15,2013-08-18 18:43:00,
2013-08-18 13:48:00,77.5,70.8,29.97,NE,34,2.0,7.0,80,0.00,,,0.00,181,Wunderground v.1.15,2013-08-18 18:48:00,
2013-08-18 13:53:00,77.1,70.8,29.97,NE,48,3.0,3.0,81,0.00,,,0.00,248,Wunderground v.1.15,2013-08-18 18:53:00,
2013-08-18 13:58:00,76.9,71.0,29.97,NNE,27,2.0,4.0,82,0.00,,,0.00,281,Wunderground v.1.15,2013-08-18 18:58:00,
2013-08-18 14:04:00,76.9,71.0,29.97,NNE,33,2.0,5.0,82,0.00,,,0.00,243,Wunderground v.1.15,2013-08-18 19:04:00,
2013-08-18 14:09:00,76.8,70.9,29.97,North,10,2.0,5.0,82,0.00,,,0.00,427,Wunderground v.1.15,2013-08-18 19:09:00,
2013-08-18 14:14:00,77.0,71.1,29.96,NNE,15,2.0,2.0,82,0.00,,,0.00,374,Wunderground v.1.15,2013-08-18 19:14:00,
2013-08-18 14:20:00,77.1,71.2,29.96,NE,39,2.0,8.0,82,0.00,,,0.00,279,Wunderground v.1.15,2013-08-18 19:20:00,
2013-08-18 14:25:00,77.1,71.2,29.96,North,357,2.0,5.0,82,0.00,,,0.00,675,Wunderground v.1.15,2013-08-18 19:25:00,
2013-08-18 14:30:00,77.4,71.8,29.96,NNE,22,2.0,5.0,83,0.00,,,0.00,512,Wunderground v.1.15,2013-08-18 19:30:00,
2013-08-18 14:35:00,77.7,71.4,29.96,NNE,21,2.0,10.0,81,0.00,,,0.00,443,Wunderground v.1.15,2013-08-18 19:35:00,
2013-08-18 14:41:00,77.9,72.0,29.95,NNE,30,2.0,10.0,82,0.00,,,0.00,510,Wunderground v.1.15,2013-08-18 19:41:00,
2013-08-18 14:46:00,78.0,71.7,29.95,NNW,331,3.0,5.0,81,0.00,,,0.00,234,Wunderground v.1.15,2013-08-18 19:46:00,
2013-08-18 14:51:00,77.9,72.0,29.95,NNE,23,2.0,5.0,82,0.00,,,0.00,109,Wunderground v.1.15,2013-08-18 19:51:00,
2013-08-18 14:56:00,77.7,71.8,29.95,NNE,25,1.0,3.0,82,0.00,,,0.00,192,Wunderground v.1.15,2013-08-18 19:56:00,
2013-08-18 15:01:00,77.5,71.9,29.95,NNE,25,0.0,3.0,83,0.00,,,0.00,258,Wunderground v.1.15,2013-08-18 20:01:00,
2013-08-18 15:06:00,77.2,71.6,29.95,North,5,1.0,6.0,83,0.00,,,0.00,167,Wunderground v.1.15,2013-08-18 20:06:00,
2013-08-18 15:12:00,76.9,71.3,29.95,NNW,339,1.0,6.0,83,0.00,,,0.00,102,Wunderground v.1.15,2013-08-18 20:12:00,
2013-08-18 15:18:00,76.5,71.3,29.94,NE,34,1.0,8.0,84,0.00,,,0.00,174,Wunderground v.1.15,2013-08-18 20:18:00,
2013-08-18 15:23:00,76.4,71.6,29.94,NNE,32,1.0,1.0,85,0.00,,,0.00,244,Wunderground v.1.15,2013-08-18 20:23:00,
2013-08-18 15:28:00,76.5,71.7,29.94,NE,56,1.0,5.0,85,0.00,,,0.00,304,Wunderground v.1.15,2013-08-18 20:28:00,
2013-08-18 15:33:00,76.7,71.5,29.94,NE,34,2.0,2.0,84,0.00,,,0.00,353,Wunderground v.1.15,2013-08-18 20:33:00,
2013-08-18 15:39:00,76.9,71.7,29.94,North,360,2.0,2.0,84,0.00,,,0.00,316,Wunderground v.1.15,2013-08-18 20:39:00,
2013-08-18 15:44:00,77.1,71.9,29.95,NE,40,1.0,1.0,84,0.00,,,0.00,306,Wunderground v.1.15,2013-08-18 20:44:00,
2013-08-18 15:49:00,77.3,72.1,29.94,NE,40,0.0,1.0,84,0.00,,,0.00,318,Wunderground v.1.15,2013-08-18 20:49:00,
2013-08-18 15:55:00,77.6,72.7,29.94,NE,38,0.0,0.0,85,0.00,,,0.00,195,Wunderground v.1.15,2013-08-18 20:55:00,
2013-08-18 16:00:00,77.6,72.0,29.94,NE,34,0.0,2.0,83,0.00,,,0.00,139,Wunderground v.1.15,2013-08-18 21:00:00,
2013-08-18 16:06:00,77.5,72.3,29.94,NNE,30,1.0,1.0,84,0.00,,,0.00,113,Wunderground v.1.15,2013-08-18 21:06:00,
2013-08-18 16:11:00,77.0,71.8,29.94,North,5,1.0,6.0,84,0.00,,,0.00,95,Wunderground v.1.15,2013-08-18 21:11:00,
2013-08-18 16:16:00,76.7,71.8,29.94,NNE,15,1.0,4.0,85,0.00,,,0.00,146,Wunderground v.1.15,2013-08-18 21:16:00,
2013-08-18 16:22:00,76.7,72.2,29.94,NNE,15,0.0,4.0,86,0.00,,,0.00,290,Wunderground v.1.15,2013-08-18 21:22:00,
2013-08-18 16:27:00,76.8,72.3,29.94,NNE,21,1.0,6.0,86,0.00,,,0.00,183,Wunderground v.1.15,2013-08-18 21:27:00,
2013-08-18 16:32:00,76.9,72.0,29.94,NNE,15,1.0,1.0,85,0.00,,,0.00,230,Wunderground v.1.15,2013-08-18 21:32:00,
2013-08-18 16:38:00,77.0,72.1,29.94,NNE,19,0.0,1.0,85,0.00,,,0.00,156,Wunderground v.1.15,2013-08-18 21:38:00,
2013-08-18 16:43:00,77.0,72.1,29.94,NE,40,1.0,1.0,85,0.00,,,0.00,183,Wunderground v.1.15,2013-08-18 21:43:00,
2013-08-18 16:48:00,77.1,72.2,29.94,NE,40,1.0,1.0,85,0.00,,,0.00,207,Wunderground v.1.15,2013-08-18 21:48:00,
2013-08-18 16:54:00,77.1,72.2,29.95,NE,35,0.0,1.0,85,0.00,,,0.00,120,Wunderground v.1.15,2013-08-18 21:54:00,
2013-08-18 16:59:00,77.0,72.1,29.95,NNE,28,1.0,5.0,85,0.00,,,0.00,76,Wunderground v.1.15,2013-08-18 21:59:00,
2013-08-18 17:04:00,76.4,72.2,29.94,NNE,25,2.0,6.0,87,0.00,,,0.00,100,Wunderground v.1.15,2013-08-18 22:04:00,
2013-08-18 17:09:00,76.0,72.2,29.94,NE,43,2.0,6.0,88,0.00,,,0.00,121,Wunderground v.1.15,2013-08-18 22:09:00,
2013-08-18 17:14:00,75.7,72.2,29.94,NE,43,1.0,1.0,89,0.00,,,0.00,142,Wunderground v.1.15,2013-08-18 22:14:00,
2013-08-18 17:20:00,75.6,72.5,29.95,NE,43,0.0,1.0,90,0.00,,,0.00,155,Wunderground v.1.15,2013-08-18 22:20:00,
2013-08-18 17:25:00,75.6,72.5,29.95,NE,43,0.0,0.0,90,0.00,,,0.00,142,Wunderground v.1.15,2013-08-18 22:25:00,
2013-08-18 17:30:00,75.7,72.6,29.95,NE,43,0.0,1.0,90,0.00,,,0.00,132,Wunderground v.1.15,2013-08-18 22:30:00,
2013-08-18 17:35:00,75.8,72.7,29.95,NE,43,0.0,0.0,90,0.00,,,0.00,60,Wunderground v.1.15,2013-08-18 22:35:00,
2013-08-18 17:40:00,75.8,72.3,29.96,NE,48,0.0,0.0,89,0.00,,,0.00,26,Wunderground v.1.15,2013-08-18 22:40:00,
2013-08-18 17:45:00,75.5,72.4,29.96,NE,38,1.0,4.0,90,0.00,,,0.00,37,Wunderground v.1.15,2013-08-18 22:45:00,
2013-08-18 17:51:00,74.9,72.1,29.96,NE,41,2.0,4.0,91,0.00,,,0.00,49,Wunderground v.1.15,2013-08-18 22:51:00,
2013-08-18 17:56:00,74.3,72.1,29.96,NE,56,2.0,2.0,93,0.00,,,0.00,56,Wunderground v.1.15,2013-08-18 22:56:00,
2013-08-18 18:01:00,74.0,72.2,29.95,NE,56,0.0,2.0,94,0.00,,,0.00,62,Wunderground v.1.15,2013-08-18 23:01:00,
2013-08-18 18:06:00,74.0,72.2,29.95,NE,56,0.0,1.0,94,0.00,,,0.00,76,Wunderground v.1.15,2013-08-18 23:06:00,
2013-08-18 18:11:00,73.9,72.4,29.95,NE,56,0.0,1.0,95,0.00,,,0.01,84,Wunderground v.1.15,2013-08-18 23:11:00,
2013-08-18 18:17:00,73.9,72.4,29.95,NE,56,0.0,0.0,95,0.00,,,0.01,90,Wunderground v.1.15,2013-08-18 23:17:00,
2013-08-18 18:22:00,73.9,72.4,29.95,NE,56,0.0,0.0,95,0.00,,,0.01,84,Wunderground v.1.15,2013-08-18 23:22:00,
2013-08-18 18:27:00,74.0,72.5,29.95,NE,53,0.0,0.0,95,0.00,,,0.01,81,Wunderground v.1.15,2013-08-18 23:27:00,
2013-08-18 18:33:00,74.1,72.6,29.95,NE,56,0.0,0.0,95,0.00,,,0.01,70,Wunderground v.1.15,2013-08-18 23:33:00,
2013-08-18 18:38:00,74.2,72.7,29.95,NE,56,0.0,0.0,95,0.00,,,0.01,28,Wunderground v.1.15,2013-08-18 23:38:00,
2013-08-18 18:43:00,74.0,72.5,29.95,NE,54,0.0,1.0,95,0.00,,,0.01,49,Wunderground v.1.15,2013-08-18 23:43:00,
2013-08-18 18:49:00,73.8,72.3,29.95,NE,54,0.0,3.0,95,0.00,,,0.01,49,Wunderground v.1.15,2013-08-18 23:49:00,
2013-08-18 18:54:00,73.7,72.2,29.95,NE,54,0.0,0.0,95,0.00,,,0.01,53,Wunderground v.1.15,2013-08-18 23:54:00,
2013-08-18 18:59:00,73.6,72.4,29.95,NE,54,0.0,0.0,96,0.00,,,0.01,58,Wunderground v.1.15,2013-08-18 23:59:00,
2013-08-18 19:05:00,73.6,72.4,29.95,NE,54,0.0,0.0,96,0.00,,,0.01,54,Wunderground v.1.15,2013-08-19 00:05:00,
2013-08-18 19:10:00,73.5,72.3,29.96,NE,54,0.0,0.0,96,0.00,,,0.01,47,Wunderground v.1.15,2013-08-19 00:10:00,
2013-08-18 19:16:00,73.5,72.3,29.96,NE,54,0.0,2.0,96,0.00,,,0.01,35,Wunderground v.1.15,2013-08-19 00:16:00,
2013-08-18 19:21:00,73.4,71.9,29.96,NE,54,0.0,2.0,95,0.00,,,0.01,25,Wunderground v.1.15,2013-08-19 00:21:00,
2013-08-18 19:26:00,73.3,71.8,29.96,NE,54,0.0,0.0,95,0.00,,,0.01,23,Wunderground v.1.15,2013-08-19 00:26:00,
2013-08-18 19:31:00,73.3,71.8,29.96,NE,54,0.0,0.0,95,0.00,,,0.01,19,Wunderground v.1.15,2013-08-19 00:31:00,
2013-08-18 19:37:00,73.3,72.1,29.97,NE,54,0.0,0.0,96,0.00,,,0.01,16,Wunderground v.1.15,2013-08-19 00:37:00,
2013-08-18 19:42:00,73.3,72.1,29.97,NE,53,0.0,0.0,96,0.00,,,0.01,12,Wunderground v.1.15,2013-08-19 00:42:00,
2013-08-18 19:48:00,73.3,72.1,29.97,NE,53,0.0,0.0,96,0.00,,,0.01,7,Wunderground v.1.15,2013-08-19 00:48:00,
2013-08-18 19:53:00,73.2,72.0,29.97,NE,53,0.0,0.0,96,0.00,,,0.01,0,Wunderground v.1.15,2013-08-19 00:53:00,
2013-08-18 19:58:00,73.2,72.0,29.97,ENE,75,0.0,2.0,96,0.00,,,0.01,0,Wunderground v.1.15,2013-08-19 00:58:00,
2013-08-18 20:03:00,73.0,71.8,29.97,NE,38,1.0,2.0,96,0.00,,,0.01,0,Wunderground v.1.15,2013-08-19 01:03:00,
2013-08-18 20:09:00,72.9,71.7,29.97,NE,38,1.0,2.0,96,0.00,,,0.01,0,Wunderground v.1.15,2013-08-19 01:09:00,
2013-08-18 20:15:00,72.8,71.6,29.97,NE,38,0.0,0.0,96,0.00,,,0.01,0,Wunderground v.1.15,2013-08-19 01:15:00,
2013-08-18 20:20:00,72.7,71.5,29.97,NE,38,0.0,1.0,96,0.00,,,0.01,0,Wunderground v.1.15,2013-08-19 01:20:00,
2013-08-18 20:25:00,72.6,71.4,29.96,NE,38,0.0,0.0,96,0.00,,,0.01,0,Wunderground v.1.15,2013-08-19 01:25:00,
2013-08-18 20:30:00,72.5,71.3,29.96,NE,38,0.0,0.0,96,0.00,,,0.01,0,Wunderground v.1.15,2013-08-19 01:30:00,
2013-08-18 20:36:00,72.5,71.6,29.96,NE,38,0.0,0.0,97,0.00,,,0.01,0,Wunderground v.1.15,2013-08-19 01:36:00,
2013-08-18 20:41:00,72.4,71.5,29.97,NE,36,0.0,0.0,97,0.00,,,0.01,0,Wunderground v.1.15,2013-08-19 01:41:00,
2013-08-18 20:48:00,72.4,71.5,29.97,NE,36,0.0,0.0,97,0.00,,,0.01,0,Wunderground v.1.15,2013-08-19 01:48:00,
2013-08-18 20:53:00,72.4,71.5,29.97,NE,36,0.0,0.0,97,0.00,,,0.01,0,Wunderground v.1.15,2013-08-19 01:53:00,
2013-08-18 20:58:00,72.3,71.4,29.97,NE,36,0.0,0.0,97,0.00,,,0.01,0,Wunderground v.1.15,2013-08-19 01:58:00,
2013-08-18 21:04:00,72.3,71.4,29.97,NE,36,0.0,0.0,97,0.00,,,0.01,0,Wunderground v.1.15,2013-08-19 02:04:00,
2013-08-18 21:10:00,72.3,71.4,29.97,NE,36,0.0,1.0,97,0.00,,,0.01,0,Wunderground v.1.15,2013-08-19 02:10:00,
2013-08-18 21:15:00,72.3,71.1,29.97,NE,36,0.0,0.0,96,0.00,,,0.01,0,Wunderground v.1.15,2013-08-19 02:15:00,
2013-08-18 21:20:00,72.3,71.1,29.97,NE,36,0.0,1.0,96,0.00,,,0.01,0,Wunderground v.1.15,2013-08-19 02:20:00,
2013-08-18 21:25:00,72.3,71.4,29.97,NE,36,0.0,1.0,97,0.00,,,0.01,0,Wunderground v.1.15,2013-08-19 02:25:00,
2013-08-18 21:30:00,72.3,71.1,29.97,NE,36,0.0,1.0,96,0.00,,,0.01,0,Wunderground v.1.15,2013-08-19 02:30:00,
2013-08-18 21:35:00,72.2,71.0,29.97,NE,36,0.0,0.0,96,0.00,,,0.01,0,Wunderground v.1.15,2013-08-19 02:35:00,
2013-08-18 21:41:00,72.2,71.0,29.97,NE,36,0.0,4.0,96,0.00,,,0.01,0,Wunderground v.1.15,2013-08-19 02:41:00,
2013-08-18 21:46:00,72.1,70.9,29.97,NNE,33,0.0,4.0,96,0.00,,,0.01,0,Wunderground v.1.15,2013-08-19 02:46:00,
2013-08-18 21:51:00,72.1,70.9,29.98,NNE,33,0.0,4.0,96,0.00,,,0.01,0,Wunderground v.1.15,2013-08-19 02:51:00,
2013-08-18 21:56:00,72.0,71.1,29.97,NNE,33,0.0,0.0,97,0.00,,,0.01,0,Wunderground v.1.15,2013-08-19 02:56:00,
2013-08-18 22:02:00,72.0,71.1,29.98,NNE,32,0.0,4.0,97,0.00,,,0.01,0,Wunderground v.1.15,2013-08-19 03:02:00,
2013-08-18 22:07:00,71.9,71.0,29.98,NNE,32,0.0,0.0,97,0.00,,,0.01,0,Wunderground v.1.15,2013-08-19 03:07:00,
2013-08-18 22:13:00,71.9,71.0,29.98,NNE,32,0.0,0.0,97,0.00,,,0.01,0,Wunderground v.1.15,2013-08-19 03:13:00,
2013-08-18 22:18:00,71.9,71.0,29.97,NNE,32,0.0,0.0,97,0.00,,,0.01,0,Wunderground v.1.15,2013-08-19 03:18:00,
2013-08-18 22:24:00,71.9,71.0,29.97,NNE,31,0.0,1.0,97,0.00,,,0.01,0,Wunderground v.1.15,2013-08-19 03:24:00,
2013-08-18 22:29:00,71.9,71.0,29.98,NNE,31,0.0,1.0,97,0.00,,,0.01,0,Wunderground v.1.15,2013-08-19 03:29:00,
2013-08-18 22:34:00,71.9,71.0,29.98,NNE,31,0.0,1.0,97,0.00,,,0.01,0,Wunderground v.1.15,2013-08-19 03:34:00,
2013-08-18 22:39:00,72.0,71.1,29.98,NNE,31,0.0,1.0,97,0.00,,,0.01,0,Wunderground v.1.15,2013-08-19 03:39:00,
2013-08-18 22:45:00,72.0,71.1,29.97,NNE,31,0.0,1.0,97,0.00,,,0.01,0,Wunderground v.1.15,2013-08-19 03:45:00,
2013-08-18 22:50:00,72.0,71.1,29.98,NNE,32,0.0,1.0,97,0.00,,,0.01,0,Wunderground v.1.15,2013-08-19 03:50:00,
2013-08-18 22:55:00,71.9,71.0,29.97,NNE,29,1.0,1.0,97,0.00,,,0.01,0,Wunderground v.1.15,2013-08-19 03:55:00,
2013-08-18 23:01:00,71.9,71.0,29.97,NNE,27,1.0,3.0,97,0.00,,,0.01,0,Wunderground v.1.15,2013-08-19 04:01:00,
2013-08-18 23:03:00,71.9,71.0,29.97,NNE,29,1.0,1.0,97,0.00,,,0.01,0,Wunderground v.1.15,2013-08-19 04:03:00,
2013-08-18 23:04:00,71.9,71.0,29.97,NNE,29,1.0,1.0,97,0.00,,,0.01,0,Wunderground v.1.15,2013-08-19 04:04:00,
2013-08-18 23:07:00,71.9,71.0,29.97,NNE,23,1.0,1.0,97,0.00,,,0.01,0,Wunderground v.1.15,2013-08-19 04:07:00,
2013-08-18 23:13:00,71.9,71.0,29.97,NE,43,1.0,2.0,97,0.00,,,0.01,0,Wunderground v.1.15,2013-08-19 04:13:00,
2013-08-18 23:18:00,71.9,71.0,29.98,NE,37,1.0,2.0,97,0.00,,,0.01,0,Wunderground v.1.15,2013-08-19 04:18:00,
2013-08-18 23:23:00,71.8,70.9,29.97,NE,42,1.0,1.0,97,0.00,,,0.01,0,Wunderground v.1.15,2013-08-19 04:23:00,
2013-08-18 23:29:00,71.8,70.9,29.97,NNE,30,1.0,3.0,97,0.00,,,0.01,0,Wunderground v.1.15,2013-08-19 04:29:00,
2013-08-18 23:34:00,71.8,70.9,29.97,NE,45,1.0,5.0,97,0.00,,,0.01,0,Wunderground v.1.15,2013-08-19 04:34:00,
2013-08-18 23:39:00,71.8,70.9,29.97,NNE,30,1.0,5.0,97,0.00,,,0.01,0,Wunderground v.1.15,2013-08-19 04:39:00,
2013-08-18 23:45:00,71.7,70.8,29.97,NNE,31,0.0,1.0,97,0.00,,,0.01,0,Wunderground v.1.15,2013-08-19 04:45:00,
2013-08-18 23:51:00,71.7,70.8,29.98,NNE,30,0.0,1.0,97,0.00,,,0.01,0,Wunderground v.1.15,2013-08-19 04:51:00,
2013-08-18 23:56:00,71.7,70.8,29.98,NNE,28,0.0,0.0,97,0.00,,,0.01,0,Wunderground v.1.15,2013-08-19 04:56:00,